SCP
0 0 0 0 0 0 0 0 0 0 0 0 0 -0 -0 0 0 0 0 0 0 0 0 0 0 0 0 0 0 0 0 0 0 0 0 0 0 0 0 0 0 0 0 0
0 0 0 0 0 0 0 0 0 0 0 0 0 -0 0 -0 0 0 0 0 0 0 0 0 0 0 0 0 0 0 0 0 0 0 0 0 0 0 0 0 0 0 0 0
0 0 0 0 0 0 0 0 0 0 0 0 0 0 0 0 0 0 0 0 0 -0 0 0 0 0 0 0 0 0 0 0 0 0 0 0 0 0 0 0 0 0 0 0
0 0 0 0 0 0 0 0 0 0 0 0 0 0 0 0 0 0 0 0 0 0 0 0 0 0 0 0 0 0 0 0 0 0 0 0 0 0 0 0 0 0 0 0
0 0 0 0 0 0 0 0 0 0 0 0 0 0 0 0 0 0 0 0 0 0 0 0 0 0 0 0 0 0 0 0 0 0 0 0 0 0 0 0 0 0 0 0
0 0 0 0 0 0 0 0 0 0 0 0 0 0 0 0 0 1 0 0 0 0 1 0 0 0 0 0 0 0 0 0 0 0 0 0 0 0 0 0 0 0 0 0
0 0 0 0 0 0 0 0 0 0 0 0 0 0 0 0 0 0 -0 0 0 1 1 0 0 0 0 0 0 0 0 0 0 0 0 0 0 0 0 0 0 0 0 0
0 0 0 0 0 0 0 0 0 0 0 0 0 0 0 0 0 0 0 0 0 1 0 0 0 0 0 0 0 0 0 0 0 0 0 0 0 0 0 0 0 0 0 0
0 0 0 0 0 0 0 0 0 0 0 0 0 0 0 0 0 0 0 0 0 1 0 0 0 0 0 0 0 0 0 0 0 0 0 0 0 0 0 0 0 0 0 0
0 0 0 0 0 0 0 0 0 0 -0 -0 0 0 0 0 -0 -0 0 0 0 0 0 0 0 0 0 0 0 0 0 0 0 0 0 0 0 0 0 0 0 0 0 0
0 0 0 0 0 0 0 0 0 0 0 -0 -0 -0 0 0 -0 -0 0 0 0 0 0 0 0 0 0 0 0 0 0 0 0 0 0 0 0 0 0 0 0 0 0 0
0 0 0 0 0 0 0 -0 0 0 0 0 0 -0 -0 -0 0 0 0 0 0 0 0 0 0 0 0 0 0 0 0 0 0 0 0 0 0 0 0 0 0 0 0 0
0 0 0 0 0 0 -0 -0 0 0 0 0 0 0 -0 -0 0 0 0 0 0 0 0 0 0 0 0 0 0 0 0 0 0 0 0 0 0 0 0 0 0 0 0 0
0 0 0 0 0 0 0 0 0 0 0 0 0 0 -0 0 0 0 0 0 0 0 0 0 0 0 0 0 0 0 0 0 0 0 0 0 0 0 0 0 0 0 0 0
0 0 -0 -0 -0 0 0 0 0 0 0 0 0 -0 -0 0 0 0 0 0 0 0 0 0 0 0 0 0 0 0 0 0 0 0 0 0 0 0 0 0 0 0 0 0
0 0 -0 -0 -0 0 0 0 0 0 0 0 0 0 0 0 0 0 0 0 0 0 0 0 0 0 0 0 0 0 0 0 0 0 0 0 0 0 0 0 0 0 0 0
0 0 0 0 0 0 0 0 0 0 0 0 0 0 0 0 0 0 0 0 0 0 0 0 0 0 0 0 0 0 0 0 0 0 0 0 0 0 0 0 0 0 0 0
-0 -0 -0 0 0 0 0 0 0 0 0 0 0 0 0 0 0 0 0 0 0 0 0 0 0 0 0 0 0 0 0 0 0 0 0 0 0 0 0 0 0 0 0 0
0 -0 0 0 -0 -0 -0 0 0 0 0 0 0 0 0 0 0 0 0 0 0 0 0 0 0 0 0 0 -0 0 0 0 0 0 0 0 0 0 0 0 0 0 0 0
-0 0 -0 -0 -0 0 0 0 0 0 0 0 0 0 0 0 0 0 0 0 0 0 0 0 0 0 0 0 0 0 0 -0 -0 -0 0 0 0 0 0 0 0 0 0 0
-0 0 0 0 -0 -0 0 0 0 0 0 0 0 0 0 0 0 0 0 0 0 0 0 0 0 0 0 0 0 0 0 -0 -0 -0 0 0 0 0 0 0 0 0 0 0
-0 -0 -0 -0 -0 -0 0 0 0 0 0 0 0 0 0 0 0 0 0 0 0 0 0 0 0 0 0 0 0 0 0 -0 -0 -0 0 0 0 0 0 0 0 0 0 0
-0 -0 -0 -0 -0 -0 -0 -0 0 0 0 0 0 0 0 0 0 0 0 0 0 0 0 0 0 0 0 0 0 0 -0 0 -0 -0 -0 0 0 0 0 0 0 0 0 0
-0 0 0 0 0 0 0 -0 -0 -0 -0 -0 -0 -0 -0 0 0 0 0 0 0 0 0 0 0 0 0 0 0 0 -0 -0 -0 -0 -0 0 0 0 0 0 0 0 0 0
0 0 0 0 0 -0 -0 -0 -0 -0 -0 -0 -0 0 0 0 0 0 0 0 0 0 0 0 0 0 0 0 0 0 0 -0 -0 -0 -0 0 0 0 0 0 0 0 0 0
0 0 0 0 0 0 -0 -0 -0 -0 -0 0 0 0 0 0 0 0 0 0 0 0 0 0 0 0 -0 -0 0 0 -0 -0 -0 -0 -0 0 0 0 0 0 0 0 0 0
0 0 0 0 0 0 0 0 0 0 0 0 0 0 0 0 0 0 0 0 0 0 0 0 0 0 -0 -0 0 -0 -0 -0 -0 -0 -0 -0 0 0 0 0 0 0 0 0
Wind_Speed_500mb
24 28 30 29 28 31 31 31 33 30 33 30 30 33 45 43 31 23 31 39 40 45 45 47 46 44 41 41 37 34 25 18 13 11 14 15 18 21 22 21 22 25 26 28
33 33 34 42 40 39 40 41 44 41 43 35 48 47 42 48 41 30 33 38 46 47 49 52 52 50 50 45 43 33 24 17 13 12 13 19 20 19 18 18 22 24 27 26
38 34 37 42 41 49 50 48 40 44 39 34 26 37 38 40 40 42 31 39 51 59 61 59 58 55 54 49 38 28 20 15 10 13 17 15 14 15 17 20 23 26 27 29
22 21 38 27 32 24 26 29 30 33 26 28 32 39 40 40 41 42 24 29 44 51 55 56 47 44 40 38 32 25 19 12 12 15 10 10 14 16 19 20 23 25 29 31
22 26 39 50 37 31 29 32 16 29 29 41 39 45 32 49 40 35 27 24 39 48 51 50 48 46 43 40 32 24 16 12 11 8 9 11 15 17 19 22 24 27 30 33
17 28 23 8 17 11 23 29 23 25 25 32 38 21 12 65 52 38 19 14 32 44 51 54 51 50 45 40 31 22 16 13 9 7 10 11 15 18 20 21 24 27 32 34
29 26 18 17 26 22 16 9 26 29 29 33 24 31 52 54 47 33 13 12 23 41 54 54 56 53 44 36 27 21 15 10 9 7 9 12 16 20 19 20 24 29 33 33
22 31 35 14 13 18 22 32 38 36 36 41 42 47 49 49 41 27 11 12 28 38 44 49 51 48 44 34 26 17 14 10 6 5 7 12 17 18 19 21 25 31 33 34
20 10 7 5 7 19 28 44 43 52 54 53 55 53 56 54 40 24 12 16 28 38 42 43 45 43 42 33 22 18 12 8 5 5 8 11 13 15 17 22 27 32 35 37
29 27 37 43 37 46 47 31 42 45 56 57 58 57 58 51 35 18 14 22 35 42 40 43 40 39 33 27 25 18 12 5 4 4 8 8 13 17 21 26 29 33 35 39
41 49 60 60 52 34 43 44 51 60 63 64 59 59 53 47 29 19 22 29 38 45 43 48 39 39 31 26 22 17 11 7 3 4 6 13 18 21 22 26 29 37 33 38
35 41 43 43 46 49 53 57 60 58 62 67 63 59 50 38 25 24 32 39 41 47 52 49 46 36 33 27 19 15 12 6 1 3 12 17 21 25 30 34 42 41 42 50
66 64 65 65 66 66 68 62 61 57 66 70 61 50 45 34 29 33 39 45 46 49 55 52 43 33 25 24 19 16 11 5 3 10 14 18 21 26 32 34 37 40 45 49
61 62 74 68 70 63 60 67 71 71 70 65 57 45 38 34 34 42 47 50 52 51 50 52 45 35 25 18 16 14 9 6 7 11 15 17 22 27 30 31 35 37 40 47
65 65 73 74 75 77 77 72 74 78 69 59 50 49 38 41 44 50 53 57 55 53 54 48 43 35 26 22 15 14 8 5 6 10 14 20 24 26 28 31 34 37 40 37
66 69 73 74 76 76 78 78 84 86 72 54 45 43 46 48 53 54 57 60 63 53 53 43 43 32 26 22 20 14 9 8 11 11 17 21 24 26 29 31 34 38 38 41
63 66 64 63 64 73 79 77 79 84 65 49 43 50 54 63 59 57 57 51 50 50 49 41 42 33 28 26 20 13 10 8 15 14 17 22 24 28 29 33 34 35 35 43
40 47 52 65 81 92 97 86 78 73 71 53 63 66 69 61 67 70 59 54 50 43 37 34 38 40 31 24 17 14 11 8 11 16 19 21 25 27 29 33 34 34 41 50
40 48 56 64 80 66 33 42 30 33 56 67 78 79 74 70 74 71 70 58 49 44 34 35 39 37 28 24 19 13 11 12 15 19 20 24 25 27 31 33 34 37 46 53
50 48 51 53 35 28 19 29 50 66 80 88 88 83 80 79 83 79 63 51 40 41 41 40 36 34 26 25 24 13 18 16 18 17 22 23 27 30 32 33 35 39 49 53
52 33 23 14 17 27 40 49 65 79 86 97 99 94 96 90 78 65 61 49 47 44 43 40 35 26 22 22 18 18 19 17 18 19 22 25 27 31 30 32 37 42 52 57
31 31 34 44 49 56 59 70 80 87 92 99 102 93 90 87 63 62 53 56 49 46 43 33 30 27 27 26 21 18 19 19 19 20 24 26 29 32 32 39 38 47 55 61
20 17 30 55 66 77 77 77 80 90 94 90 84 75 70 68 59 57 55 51 49 44 34 36 31 24 25 24 20 20 21 21 20 22 23 25 29 31 39 44 43 48 58 63
8 16 33 59 51 61 63 66 70 63 62 62 62 56 60 58 56 48 52 50 46 40 40 36 28 23 28 20 22 23 21 19 21 24 23 29 29 30 39 42 42 51 59 60
25 28 40 41 47 46 50 59 55 53 56 58 57 50 47 48 54 55 52 47 41 45 42 31 25 28 23 24 25 21 20 24 29 24 24 28 31 29 37 40 41 51 59 58
27 34 43 35 33 43 43 48 55 54 59 54 48 48 52 51 50 51 50 44 43 40 34 26 23 25 26 23 23 22 21 24 24 25 24 28 32 30 37 38 40 50 58 57
10 10 12 16 30 36 45 55 62 56 53 53 54 51 51 50 46 43 41 39 35 31 29 25 25 25 22 23 23 23 23 26 32 27 26 30 35 29 33 37 38 47 55 58
Wind_Direction_500mb
273 281 286 272 270 267 253 254 265 279 284 293 296 286 284 286 289 262 223 210 204 195 192 187 183 180 182 183 186 191 197 200 214 243 271 284 288 288 299 303 303 303 301 298
266 264 267 269 260 255 256 257 261 264 267 277 280 285 283 271 270 264 243 221 205 201 195 191 187 184 185 189 195 191 188 195 214 252 280 281 284 294 295 300 305 298 301 297
263 265 269 266 251 250 254 254 256 260 268 279 295 304 294 282 272 277 255 227 211 200 198 195 191 189 187 188 182 183 181 182 225 269 273 277 287 291 296 302 309 303 301 302
263 279 251 266 265 265 279 276 269 266 276 273 287 311 306 280 274 279 276 235 215 206 202 196 188 178 180 181 179 177 176 194 249 261 262 270 289 292 298 308 310 304 303 305
241 233 259 282 275 260 254 263 354 341 302 280 295 300 318 22 346 295 280 232 208 202 198 189 180 176 174 175 177 171 181 223 237 237 253 281 290 297 302 308 305 304 305 306
244 239 254 41 17 276 232 250 39 5 2 353 333 282 285 348 346 339 313 233 194 189 184 181 173 171 174 175 170 172 210 220 208 227 269 284 291 301 305 301 306 308 307 308
232 249 265 279 291 310 241 56 345 335 343 348 338 326 314 323 330 329 308 208 188 182 180 174 168 172 167 165 169 194 211 204 230 250 271 285 297 309 302 302 305 311 312 313
234 241 249 234 265 286 9 330 331 336 333 333 327 325 321 326 325 321 297 188 177 180 177 169 164 167 163 160 184 204 193 211 220 252 281 287 304 303 296 303 317 319 317 318
222 218 90 287 304 328 321 316 320 326 325 326 323 319 321 321 319 309 256 196 175 172 168 164 161 161 161 178 188 186 187 182 205 260 292 303 306 303 317 312 317 321 318 320
269 250 269 281 297 302 306 315 309 311 311 313 312 312 314 312 309 283 227 184 168 165 161 150 150 156 171 176 176 166 158 184 219 273 303 312 307 310 311 314 314 321 318 320
268 266 274 274 278 303 304 301 301 303 304 301 302 303 304 302 290 247 193 175 165 158 156 156 149 160 169 169 155 154 148 161 226 324 322 305 313 311 309 309 308 317 314 317
258 276 278 278 288 295 292 289 292 295 298 294 294 293 297 288 265 212 182 170 161 153 162 155 159 163 157 153 151 144 134 132 227 338 306 312 318 321 321 322 322 326 323 323
266 276 280 281 284 284 282 282 288 286 292 287 285 276 281 263 225 196 176 163 161 154 158 155 152 141 146 145 140 135 144 134 33 348 320 327 329 326 328 330 329 332 332 334
271 278 276 277 281 284 281 279 285 286 287 279 267 263 258 223 193 184 171 159 155 151 152 153 150 149 147 141 135 134 146 93 40 327 329 338 330 334 336 334 331 331 336 338
273 271 271 278 280 277 275 281 283 286 285 270 259 252 220 191 182 177 160 152 151 153 154 155 149 144 147 141 144 136 118 80 7 340 337 348 343 344 342 337 336 338 339 336
284 281 279 276 276 279 272 271 275 274 268 245 246 216 195 181 169 165 156 152 156 153 153 153 145 145 143 139 141 122 99 51 39 7 356 353 353 350 346 344 347 347 347 338
286 284 280 276 278 274 272 277 271 264 259 241 215 196 178 166 157 154 147 150 148 145 150 148 137 140 138 139 125 122 88 32 35 21 13 6 360 355 350 351 354 353 348 342
291 280 278 281 289 292 290 285 273 250 235 228 187 176 164 159 151 144 142 142 137 135 135 139 139 135 136 127 118 97 78 41 35 34 20 9 8 357 356 358 358 355 348 349
307 298 303 301 298 286 260 268 241 182 173 172 168 156 153 149 140 141 136 135 136 131 134 140 137 133 132 121 99 88 70 61 42 27 24 15 7 1 4 5 2 354 353 359
314 303 293 286 278 253 242 156 151 152 150 150 148 142 138 139 144 140 140 131 133 138 140 137 135 132 125 114 97 83 75 59 47 27 20 27 7 9 12 10 0 357 2 6
331 319 308 78 125 145 144 150 147 137 135 141 137 136 138 141 136 136 131 126 137 137 135 128 129 124 117 94 85 82 73 58 43 31 30 23 13 17 17 13 3 4 8 6
353 22 87 90 102 100 116 122 124 126 129 132 136 139 138 136 135 134 140 137 138 140 135 131 127 122 109 95 89 80 68 59 46 36 33 22 19 19 20 14 9 11 10 7
349 24 73 105 107 103 105 111 118 122 124 124 126 128 133 135 145 145 133 138 137 137 133 129 122 112 100 89 89 79 67 59 51 42 34 27 24 20 20 19 17 15 12 11
9 22 79 136 134 128 121 134 131 132 135 137 138 137 137 133 135 144 137 137 140 140 133 126 114 103 95 92 81 70 61 57 49 41 30 30 28 23 21 22 22 18 16 16
105 66 51 117 129 129 130 129 133 135 139 140 135 129 133 140 142 141 139 136 138 137 127 117 107 101 98 84 76 70 60 58 59 43 26 29 29 26 25 25 24 21 20 20
69 48 45 40 105 124 125 132 132 134 133 128 127 135 139 146 142 138 139 139 139 132 118 110 107 97 89 85 77 71 64 57 50 40 34 30 25 33 31 27 25 24 22 21
24 39 34 75 111 120 128 134 139 134 134 137 135 137 136 137 139 136 132 129 129 127 120 109 101 99 94 82 73 66 58 47 48 48 33 26 21 34 36 30 26 25 23 22
Wind_Speed_850mb
24 28 30 29 28 31 31 31 33 30 33 30 30 33 45 43 31 23 31 39 40 45 45 47 46 44 41 41 37 34 25 18 13 11 14 15 18 21 22 21 22 25 26 28
33 33 34 42 40 39 40 41 44 41 43 35 48 47 42 48 41 30 33 38 46 47 49 52 52 50 50 45 43 33 24 17 13 12 13 19 20 19 18 18 22 24 27 26
38 34 37 42 41 49 50 48 40 44 39 34 26 37 38 40 40 42 31 39 51 59 61 59 58 55 54 49 38 28 20 15 10 13 17 15 14 15 17 20 23 26 27 29
22 21 38 27 32 24 26 29 30 33 26 28 32 39 40 40 41 42 24 29 44 51 55 56 47 44 40 38 32 25 19 12 12 15 10 10 14 16 19 20 23 25 29 31
22 26 39 50 37 31 29 32 16 29 29 41 39 45 32 49 40 35 27 24 39 48 51 50 48 46 43 40 32 24 16 12 11 8 9 11 15 17 19 22 24 27 30 33
17 28 23 8 17 11 23 29 23 25 25 32 38 21 12 65 52 38 19 14 32 44 51 54 51 50 45 40 31 22 16 13 9 7 10 11 15 18 20 21 24 27 32 34
29 26 18 17 26 22 16 9 26 29 29 33 24 31 52 54 47 33 13 12 23 41 54 54 56 53 44 36 27 21 15 10 9 7 9 12 16 20 19 20 24 29 33 33
22 31 35 14 13 18 22 32 38 36 36 41 42 47 49 49 41 27 11 12 28 38 44 49 51 48 44 34 26 17 14 10 6 5 7 12 17 18 19 21 25 31 33 34
20 10 7 5 7 19 28 44 43 52 54 53 55 53 56 54 40 24 12 16 28 38 42 43 45 43 42 33 22 18 12 8 5 5 8 11 13 15 17 22 27 32 35 37
29 27 37 43 37 46 47 31 42 45 56 57 58 57 58 51 35 18 14 22 35 42 40 43 40 39 33 27 25 18 12 5 4 4 8 8 13 17 21 26 29 33 35 39
41 49 60 60 52 34 43 44 51 60 63 64 59 59 53 47 29 19 22 29 38 45 43 48 39 39 31 26 22 17 11 7 3 4 6 13 18 21 22 26 29 37 33 38
35 41 43 43 46 49 53 57 60 58 62 67 63 59 50 38 25 24 32 39 41 47 52 49 46 36 33 27 19 15 12 6 1 3 12 17 21 25 30 34 42 41 42 50
66 64 65 65 66 66 68 62 61 57 66 70 61 50 45 34 29 33 39 45 46 49 55 52 43 33 25 24 19 16 11 5 3 10 14 18 21 26 32 34 37 40 45 49
61 62 74 68 70 63 60 67 71 71 70 65 57 45 38 34 34 42 47 50 52 51 50 52 45 35 25 18 16 14 9 6 7 11 15 17 22 27 30 31 35 37 40 47
65 65 73 74 75 77 77 72 74 78 69 59 50 49 38 41 44 50 53 57 55 53 54 48 43 35 26 22 15 14 8 5 6 10 14 20 24 26 28 31 34 37 40 37
66 69 73 74 76 76 78 78 84 86 72 54 45 43 46 48 53 54 57 60 63 53 53 43 43 32 26 22 20 14 9 8 11 11 17 21 24 26 29 31 34 38 38 41
63 66 64 63 64 73 79 77 79 84 65 49 43 50 54 63 59 57 57 51 50 50 49 41 42 33 28 26 20 13 10 8 15 14 17 22 24 28 29 33 34 35 35 43
40 47 52 65 81 92 97 86 78 73 71 53 63 66 69 61 67 70 59 54 50 43 37 34 38 40 31 24 17 14 11 8 11 16 19 21 25 27 29 33 34 34 41 50
40 48 56 64 80 66 33 42 30 33 56 67 78 79 74 70 74 71 70 58 49 44 34 35 39 37 28 24 19 13 11 12 15 19 20 24 25 27 31 33 34 37 46 53
50 48 51 53 35 28 19 29 50 66 80 88 88 83 80 79 83 79 63 51 40 41 41 40 36 34 26 25 24 13 18 16 18 17 22 23 27 30 32 33 35 39 49 53
52 33 23 14 17 27 40 49 65 79 86 97 99 94 96 90 78 65 61 49 47 44 43 40 35 26 22 22 18 18 19 17 18 19 22 25 27 31 30 32 37 42 52 57
31 31 34 44 49 56 59 70 80 87 92 99 102 93 90 87 63 62 53 56 49 46 43 33 30 27 27 26 21 18 19 19 19 20 24 26 29 32 32 39 38 47 55 61
20 17 30 55 66 77 77 77 80 90 94 90 84 75 70 68 59 57 55 51 49 44 34 36 31 24 25 24 20 20 21 21 20 22 23 25 29 31 39 44 43 48 58 63
8 16 33 59 51 61 63 66 70 63 62 62 62 56 60 58 56 48 52 50 46 40 40 36 28 23 28 20 22 23 21 19 21 24 23 29 29 30 39 42 42 51 59 60
25 28 40 41 47 46 50 59 55 53 56 58 57 50 47 48 54 55 52 47 41 45 42 31 25 28 23 24 25 21 20 24 29 24 24 28 31 29 37 40 41 51 59 58
27 34 43 35 33 43 43 48 55 54 59 54 48 48 52 51 50 51 50 44 43 40 34 26 23 25 26 23 23 22 21 24 24 25 24 28 32 30 37 38 40 50 58 57
10 10 12 16 30 36 45 55 62 56 53 53 54 51 51 50 46 43 41 39 35 31 29 25 25 25 22 23 23 23 23 26 32 27 26 30 35 29 33 37 38 47 55 58
Wind_Direction_850mb
273 281 286 272 270 267 253 254 265 279 284 293 296 286 284 286 289 262 223 210 204 195 192 187 183 180 182 183 186 191 197 200 214 243 271 284 288 288 299 303 303 303 301 298
266 264 267 269 260 255 256 257 261 264 267 277 280 285 283 271 270 264 243 221 205 201 195 191 187 184 185 189 195 191 188 195 214 252 280 281 284 294 295 300 305 298 301 297
263 265 269 266 251 250 254 254 256 260 268 279 295 304 294 282 272 277 255 227 211 200 198 195 191 189 187 188 182 183 181 182 225 269 273 277 287 291 296 302 309 303 301 302
263 279 251 266 265 265 279 276 269 266 276 273 287 311 306 280 274 279 276 235 215 206 202 196 188 178 180 181 179 177 176 194 249 261 262 270 289 292 298 308 310 304 303 305
241 233 259 282 275 260 254 263 354 341 302 280 295 300 318 22 346 295 280 232 208 202 198 189 180 176 174 175 177 171 181 223 237 237 253 281 290 297 302 308 305 304 305 306
244 239 254 41 17 276 232 250 39 5 2 353 333 282 285 348 346 339 313 233 194 189 184 181 173 171 174 175 170 172 210 220 208 227 269 284 291 301 305 301 306 308 307 308
232 249 265 279 291 310 241 56 345 335 343 348 338 326 314 323 330 329 308 208 188 182 180 174 168 172 167 165 169 194 211 204 230 250 271 285 297 309 302 302 305 311 312 313
234 241 249 234 265 286 9 330 331 336 333 333 327 325 321 326 325 321 297 188 177 180 177 169 164 167 163 160 184 204 193 211 220 252 281 287 304 303 296 303 317 319 317 318
222 218 90 287 304 328 321 316 320 326 325 326 323 319 321 321 319 309 256 196 175 172 168 164 161 161 161 178 188 186 187 182 205 260 292 303 306 303 317 312 317 321 318 320
269 250 269 281 297 302 306 315 309 311 311 313 312 312 314 312 309 283 227 184 168 165 161 150 150 156 171 176 176 166 158 184 219 273 303 312 307 310 311 314 314 321 318 320
268 266 274 274 278 303 304 301 301 303 304 301 302 303 304 302 290 247 193 175 165 158 156 156 149 160 169 169 155 154 148 161 226 324 322 305 313 311 309 309 308 317 314 317
258 276 278 278 288 295 292 289 292 295 298 294 294 293 297 288 265 212 182 170 161 153 162 155 159 163 157 153 151 144 134 132 227 338 306 312 318 321 321 322 322 326 323 323
266 276 280 281 284 284 282 282 288 286 292 287 285 276 281 263 225 196 176 163 161 154 158 155 152 141 146 145 140 135 144 134 33 348 320 327 329 326 328 330 329 332 332 334
271 278 276 277 281 284 281 279 285 286 287 279 267 263 258 223 193 184 171 159 155 151 152 153 150 149 147 141 135 134 146 93 40 327 329 338 330 334 336 334 331 331 336 338
273 271 271 278 280 277 275 281 283 286 285 270 259 252 220 191 182 177 160 152 151 153 154 155 149 144 147 141 144 136 118 80 7 340 337 348 343 344 342 337 336 338 339 336
284 281 279 276 276 279 272 271 275 274 268 245 246 216 195 181 169 165 156 152 156 153 153 153 145 145 143 139 141 122 99 51 39 7 356 353 353 350 346 344 347 347 347 338
286 284 280 276 278 274 272 277 271 264 259 241 215 196 178 166 157 154 147 150 148 145 150 148 137 140 138 139 125 122 88 32 35 21 13 6 360 355 350 351 354 353 348 342
291 280 278 281 289 292 290 285 273 250 235 228 187 176 164 159 151 144 142 142 137 135 135 139 139 135 136 127 118 97 78 41 35 34 20 9 8 357 356 358 358 355 348 349
307 298 303 301 298 286 260 268 241 182 173 172 168 156 153 149 140 141 136 135 136 131 134 140 137 133 132 121 99 88 70 61 42 27 24 15 7 1 4 5 2 354 353 359
314 303 293 286 278 253 242 156 151 152 150 150 148 142 138 139 144 140 140 131 133 138 140 137 135 132 125 114 97 83 75 59 47 27 20 27 7 9 12 10 0 357 2 6
331 319 308 78 125 145 144 150 147 137 135 141 137 136 138 141 136 136 131 126 137 137 135 128 129 124 117 94 85 82 73 58 43 31 30 23 13 17 17 13 3 4 8 6
353 22 87 90 102 100 116 122 124 126 129 132 136 139 138 136 135 134 140 137 138 140 135 131 127 122 109 95 89 80 68 59 46 36 33 22 19 19 20 14 9 11 10 7
349 24 73 105 107 103 105 111 118 122 124 124 126 128 133 135 145 145 133 138 137 137 133 129 122 112 100 89 89 79 67 59 51 42 34 27 24 20 20 19 17 15 12 11
9 22 79 136 134 128 121 134 131 132 135 137 138 137 137 133 135 144 137 137 140 140 133 126 114 103 95 92 81 70 61 57 49 41 30 30 28 23 21 22 22 18 16 16
105 66 51 117 129 129 130 129 133 135 139 140 135 129 133 140 142 141 139 136 138 137 127 117 107 101 98 84 76 70 60 58 59 43 26 29 29 26 25 25 24 21 20 20
69 48 45 40 105 124 125 132 132 134 133 128 127 135 139 146 142 138 139 139 139 132 118 110 107 97 89 85 77 71 64 57 50 40 34 30 25 33 31 27 25 24 22 21
24 39 34 75 111 120 128 134 139 134 134 137 135 137 136 137 139 136 132 129 129 127 120 109 101 99 94 82 73 66 58 47 48 48 33 26 21 34 36 30 26 25 23 22